Date,TemperatureHighF,TemperatureAvgF,TemperatureLowF,DewpointHighF,DewpointAvgF,DewpointLowF,HumidityHigh,HumidityAvg,HumidityLow,PressureMaxIn,PressureMinIn,WindSpeedMaxMPH,WindSpeedAvgMPH,GustSpeedMaxMPH,PrecipitationSumIn
2013-1-1,30.0,28.9,26.0,24.0,21.6,20.0,90,74,68,0.00,40.00,7,3,15,0.00
2013-1-2,30.0,29.6,29.0,23.0,21.8,21.0,74,72,70,0.00,40.00,7,5,21,0.00
2013-1-3,30.0,28.8,27.0,21.0,20.1,18.0,79,69,63,0.00,40.00,7,4,18,0.00
2013-1-4,33.0,28.8,26.0,25.0,23.4,19.0,94,81,63,0.00,40.00,6,2,15,0.00
2013-1-5,30.0,29.3,29.0,28.0,25.7,22.0,95,86,74,0.00,40.00,6,2,15,0.00
2013-1-6,34.0,29.7,24.0,31.0,27.0,23.0,95,89,76,0.00,40.00,3,1,5,0.00
2013-1-7,53.0,41.0,32.0,44.0,36.4,31.0,98,84,63,0.00,40.00,5,2,14,0.01
2013-1-8,48.0,43.1,39.0,46.0,40.7,36.0,99,91,75,0.00,40.00,4,2,8,0.01
2013-1-9,48.0,38.9,33.0,43.0,36.4,33.0,99,91,73,0.00,40.00,5,3,13,0.01
2013-1-10,41.0,34.6,29.0,33.0,30.3,27.0,98,84,60,0.00,40.00,7,3,15,0.00
2013-1-11,40.0,32.1,24.0,28.0,24.6,19.0,91,75,42,0.00,40.00,4,2,8,0.00
2013-1-12,37.0,25.9,20.0,24.0,20.6,18.0,93,81,48,0.00,40.00,2,1,4,0.00
2013-1-13,33.0,23.0,16.0,23.0,18.7,14.0,91,84,63,0.00,40.00,3,1,5,0.00
2013-1-14,43.0,29.4,18.0,32.0,23.7,16.0,92,80,53,0.00,40.00,10,3,18,0.00
2013-1-15,44.0,33.3,26.0,34.0,30.3,25.0,96,89,67,0.00,40.00,6,2,11,0.00
2013-1-16,35.0,32.3,30.0,32.0,30.4,27.0,98,92,83,0.00,40.00,5,2,11,0.00
2013-1-17,31.0,29.9,29.0,27.0,25.4,25.0,86,83,81,0.00,40.00,5,4,12,0.00
2013-1-18,40.0,30.6,27.0,29.0,26.1,24.0,94,83,63,0.00,40.00,2,2,5,0.00
2013-1-19,32.0,28.9,24.0,28.0,25.7,22.0,95,88,81,0.00,40.00,4,2,10,0.00
2013-1-20,29.0,28.3,27.0,25.0,24.4,24.0,88,85,82,0.00,40.00,5,4,13,0.00
2013-1-21,29.0,27.7,27.0,24.0,23.1,23.0,86,82,78,0.00,40.00,6,4,12,0.00
2013-1-22,28.0,27.0,26.0,23.0,22.3,21.0,84,82,77,0.00,40.00,6,4,13,0.00
2013-1-23,30.0,27.7,26.0,27.0,23.1,21.0,93,83,72,0.00,40.00,5,2,10,0.00
2013-1-24,41.0,32.8,25.0,34.0,30.2,24.0,97,90,76,0.00,40.00,3,1,5,0.00
2013-1-25,38.0,35.2,33.0,38.0,34.9,33.0,99,98,95,0.00,40.00,2,1,4,0.01
2013-1-26,44.0,36.9,31.0,40.0,35.4,30.0,100,94,77,0.00,40.00,5,2,8,0.00
2013-1-27,42.0,35.7,29.0,36.0,32.6,28.0,98,89,74,0.00,40.00,8,3,13,0.00
2013-1-28,44.0,38.8,32.0,37.0,34.6,31.0,97,85,71,0.00,40.00,8,3,16,0.00
2013-1-29,49.0,45.2,42.0,41.0,38.1,35.0,86,75,65,0.00,40.00,7,5,18,0.00
2013-1-30,50.0,45.9,43.0,44.0,41.3,38.0,92,84,75,0.00,40.00,8,4,14,0.00
2013-1-31,52.0,47.5,38.0,41.0,39.9,36.0,94,75,58,0.00,40.00,11,5,18,0.00
2013-2-1,55.0,40.7,31.0,40.0,35.3,31.0,98,83,49,0.00,40.00,4,2,10,0.00
2013-2-2,52.0,36.3,27.0,39.0,32.4,26.0,97,87,60,0.00,40.00,3,1,9,0.00
2013-2-3,48.0,37.9,27.0,40.0,33.7,27.0,98,85,69,0.00,40.00,12,4,25,0.00
2013-2-4,51.0,40.7,32.0,39.0,35.5,31.0,97,82,58,0.00,40.00,3,1,5,0.00
2013-2-5,49.0,41.0,33.0,43.0,38.0,32.0,96,89,75,0.00,40.00,5,2,11,0.01
2013-2-6,48.0,41.3,36.0,41.0,38.5,35.0,99,89,72,0.00,40.00,4,2,7,0.01
2013-2-7,46.0,38.1,29.0,38.0,33.3,26.0,97,84,57,0.00,40.00,8,3,14,0.00
2013-2-8,49.0,33.7,24.0,33.0,27.4,22.0,96,80,46,0.00,40.00,8,2,13,0.00
2013-2-9,48.0,37.0,27.0,34.0,30.1,25.0,93,77,58,0.00,40.00,9,4,18,0.00
2013-2-10,51.0,36.5,26.0,36.0,30.7,25.0,95,81,56,0.00,40.00,5,3,11,0.00
2013-2-11,50.0,38.2,28.0,39.0,32.5,26.0,94,80,58,0.00,40.00,11,5,23,0.00
2013-2-12,54.0,46.0,39.0,43.0,40.8,37.0,95,82,62,0.00,40.00,11,4,20,0.00
2013-2-13,55.0,48.7,40.0,42.0,39.0,33.0,81,70,46,0.00,40.00,11,5,19,0.00
2013-2-14,55.0,43.0,33.0,40.0,36.6,31.0,94,79,57,0.00,40.00,10,4,18,0.00
2013-2-15,56.0,39.7,28.0,40.0,34.5,28.0,97,84,54,0.00,40.00,6,2,15,0.00
2013-2-16,51.0,38.9,28.0,42.0,34.2,27.0,97,84,62,0.00,40.00,10,3,21,0.00
2013-2-17,45.0,40.4,31.0,33.0,27.9,25.0,81,61,44,0.00,40.00,10,4,20,0.00
2013-2-18,45.0,36.2,30.0,31.0,28.9,26.0,90,76,55,0.00,40.00,6,2,12,0.00
2013-2-19,52.0,37.4,28.0,32.0,28.2,26.0,92,72,37,0.00,40.00,4,2,8,0.00
2013-2-20,46.0,35.1,23.0,37.0,30.1,22.0,94,82,60,0.00,40.00,10,3,17,0.00
2013-2-21,45.0,38.6,33.0,37.0,34.5,32.0,97,86,59,0.00,40.00,6,2,14,0.00
2013-2-22,45.0,41.5,37.0,42.0,37.4,30.0,96,86,60,0.00,40.00,7,3,18,0.01
2013-2-23,46.0,41.1,37.0,33.0,31.0,28.0,83,68,51,0.00,40.00,9,5,21,0.01
2013-2-24,48.0,40.8,35.0,34.0,32.1,29.0,89,71,53,0.00,40.00,8,3,14,0.00
2013-2-25,47.0,39.7,36.0,38.0,34.7,29.0,97,82,61,0.00,40.00,8,4,20,0.01
2013-2-26,46.0,40.9,36.0,35.0,33.0,27.0,90,73,57,0.00,40.00,7,3,14,0.01
2013-2-27,53.0,40.0,30.0,42.0,35.4,29.0,96,85,59,0.00,40.00,5,2,8,0.00
2013-2-28,52.0,44.7,42.0,48.0,43.2,41.0,98,94,84,0.00,40.00,2,0,4,0.01
2013-3-1,58.0,52.6,41.0,51.0,47.8,41.0,99,84,71,0.00,40.00,10,4,16,0.00
2013-3-2,55.0,45.6,38.0,47.0,41.8,37.0,99,87,70,0.00,40.00,12,3,24,0.00
2013-3-3,48.0,42.7,38.0,37.0,29.3,25.0,75,59,47,0.00,40.00,10,5,17,0.00
2013-3-4,51.0,40.3,24.0,29.0,23.1,18.0,93,55,28,0.00,40.00,7,4,20,0.00
2013-3-5,41.0,34.9,29.0,37.0,30.4,24.0,94,83,73,0.00,40.00,4,2,7,0.00
2013-3-6,41.0,38.4,34.0,38.0,36.6,34.0,97,93,89,0.00,40.00,5,2,12,0.02
2013-3-7,54.0,41.0,31.0,37.0,33.2,28.0,97,77,36,0.00,40.00,4,2,8,0.01
2013-3-8,58.0,39.6,27.0,35.0,30.1,26.0,96,74,30,0.00,40.00,4,2,9,0.00
2013-3-9,60.0,41.8,26.0,35.0,27.1,22.0,94,64,23,0.00,40.00,12,3,22,0.00
2013-3-10,55.0,39.5,30.0,42.0,33.0,27.0,88,78,47,0.00,40.00,13,4,22,0.00
2013-3-11,55.0,49.3,43.0,46.0,43.4,41.0,94,80,62,0.00,40.00,8,3,14,0.00
2013-3-12,57.0,49.4,42.0,49.0,45.1,41.0,98,86,66,0.00,40.00,12,4,22,0.00
2013-3-13,65.0,51.9,43.0,46.0,43.6,41.0,93,75,49,0.00,40.00,9,3,16,0.00
2013-3-14,63.0,51.0,43.0,47.0,43.1,39.0,97,77,46,0.00,40.00,13,4,23,0.00
2013-3-15,60.0,51.2,40.0,48.0,44.6,40.0,97,79,55,0.00,40.00,11,4,22,0.00
2013-3-16,54.0,46.0,39.0,45.0,41.1,35.0,97,83,60,0.00,40.00,11,4,28,0.01
2013-3-17,46.0,40.8,38.0,35.0,31.6,28.0,89,69,54,0.00,40.00,11,6,28,0.01
2013-3-18,50.0,42.6,36.0,33.0,32.3,30.0,86,68,46,0.00,40.00,10,4,24,0.00
2013-3-19,47.0,37.8,30.0,39.0,31.7,28.0,95,80,50,0.00,40.00,4,2,12,0.01
2013-3-20,54.0,42.6,38.0,43.0,36.9,30.0,98,82,48,0.00,40.00,11,4,25,0.03
2013-3-21,44.0,39.8,38.0,35.0,32.4,30.0,84,74,63,0.00,40.00,12,6,23,0.01
2013-3-22,46.0,38.5,33.0,31.0,28.1,25.0,88,67,46,0.00,40.00,11,5,24,0.00
2013-3-23,49.0,36.8,29.0,30.0,27.0,22.0,91,70,34,0.00,40.00,5,2,9,0.00
2013-3-24,49.0,38.8,28.0,30.0,26.4,21.0,95,66,35,0.00,40.00,8,3,17,0.00
2013-3-25,57.0,44.2,30.0,34.0,29.1,25.0,89,59,33,0.00,40.00,8,3,21,0.00
2013-3-26,56.0,44.4,33.0,41.0,35.0,30.0,91,71,45,0.00,40.00,3,1,5,0.00
2013-3-27,62.0,49.2,38.0,48.0,42.2,37.0,95,78,46,0.00,40.00,5,2,11,0.00
2013-3-28,63.0,51.5,41.0,46.0,43.1,40.0,98,76,45,0.00,40.00,4,2,8,0.00
2013-3-29,68.0,54.8,44.0,46.0,44.4,42.0,96,71,40,0.00,40.00,4,2,8,0.00
2013-3-30,71.0,53.8,35.0,46.0,41.4,34.0,98,68,34,0.00,40.00,6,3,21,0.00
2013-3-31,73.0,54.7,34.0,45.0,39.5,33.0,96,63,28,0.00,40.00,5,2,15,0.00
2013-4-1,63.0,53.2,42.0,50.0,45.3,42.0,97,76,53,0.00,40.00,13,5,30,0.00
2013-4-2,63.0,55.2,47.0,47.0,45.7,43.0,91,71,54,0.00,40.00,14,6,24,0.00
2013-4-3,68.0,53.0,36.0,48.0,43.0,36.0,98,73,41,0.00,40.00,7,2,11,0.00
2013-4-4,61.0,53.9,50.0,54.0,49.7,47.0,94,85,74,0.00,40.00,6,2,12,0.01
2013-4-5,60.0,53.3,48.0,49.0,47.2,45.0,94,80,61,0.00,40.00,8,3,18,0.01
2013-4-6,53.0,48.3,43.0,48.0,43.6,39.0,98,84,61,0.00,40.00,8,4,21,0.01
2013-4-7,50.0,43.9,38.0,42.0,39.5,37.0,98,85,64,0.00,40.00,11,4,31,0.02
2013-4-8,54.0,46.5,39.0,39.0,37.0,34.0,96,69,56,0.00,40.00,9,4,18,0.01
2013-4-9,59.0,45.2,33.0,42.0,37.0,32.0,96,75,51,0.00,40.00,8,3,15,0.00
2013-4-10,60.0,50.4,42.0,50.0,42.9,32.0,91,76,52,0.00,40.00,12,5,25,0.00
2013-4-11,55.0,48.0,42.0,37.0,35.1,32.0,81,61,49,0.00,40.00,8,5,24,0.00
2013-4-12,54.0,42.5,31.0,43.0,35.9,30.0,96,79,50,0.00,40.00,13,4,25,0.00
2013-4-13,50.0,44.2,37.0,41.0,34.5,30.0,87,69,45,0.00,40.00,12,6,26,0.00
2013-4-14,53.0,43.9,36.0,36.0,34.4,28.0,89,70,39,0.00,40.00,10,5,21,0.00
2013-4-15,51.0,41.6,34.0,39.0,34.7,31.0,94,78,45,0.00,40.00,12,3,19,0.00
2013-4-16,52.0,42.5,33.0,38.0,33.8,29.0,96,74,43,0.00,40.00,6,2,12,0.00
2013-4-17,59.0,44.2,30.0,36.0,32.3,29.0,95,67,31,0.00,40.00,9,3,18,0.00
2013-4-18,57.0,50.7,44.0,45.0,39.2,36.0,80,65,51,0.00,40.00,12,6,22,0.00
2013-4-19,60.0,53.0,46.0,48.0,45.9,42.0,96,77,56,0.00,40.00,9,5,20,0.00
2013-4-20,58.0,52.1,48.0,45.0,41.2,38.0,82,67,47,0.00,40.00,10,6,20,0.00
2013-4-21,54.0,50.0,46.0,44.0,41.1,39.0,77,71,62,0.00,40.00,11,7,23,0.00
2013-4-22,61.0,47.2,33.0,40.0,31.7,23.0,97,63,24,0.00,40.00,6,2,15,0.00
2013-4-23,68.0,48.6,31.0,32.0,28.7,26.0,87,53,24,0.00,40.00,6,2,17,0.00
2013-4-24,72.0,51.3,33.0,40.0,30.7,27.0,83,53,20,0.00,40.00,7,2,15,0.00
2013-4-25,76.0,58.0,39.0,42.0,38.9,36.0,89,55,28,0.00,40.00,9,4,20,0.00
2013-4-26,79.0,61.0,39.0,46.0,38.5,33.0,96,52,19,0.00,40.00,11,4,20,0.00
2013-4-27,72.0,58.3,38.0,43.0,37.5,29.0,91,51,20,0.00,40.00,14,6,28,0.00
2013-4-28,64.0,57.3,51.0,48.0,42.8,38.0,89,60,39,0.00,40.00,9,5,19,0.00
2013-4-29,57.0,52.4,48.0,46.0,38.1,28.0,80,59,34,0.00,40.00,12,6,34,0.00
2013-4-30,55.0,49.1,42.0,33.0,28.9,27.0,66,46,34,0.00,40.00,10,6,21,0.00
2013-5-1,66.0,48.2,31.0,33.0,30.3,26.0,91,57,22,0.00,40.00,7,3,16,0.00
2013-5-2,75.0,53.7,33.0,45.0,34.2,30.0,88,55,21,0.00,40.00,6,2,14,0.00
2013-5-3,79.0,59.0,37.0,45.0,39.8,35.0,95,56,22,0.00,40.00,4,2,13,0.00
2013-5-4,79.0,62.3,40.0,44.0,35.1,26.0,94,48,15,0.00,40.00,8,4,25,0.00
2013-5-5,82.0,64.2,40.0,44.0,37.2,29.0,87,43,19,0.00,40.00,7,3,18,0.00
2013-5-6,86.0,69.6,42.0,50.0,44.5,40.0,91,47,21,0.00,40.00,6,3,10,0.00
2013-5-7,77.0,64.1,51.0,50.0,48.2,46.0,83,59,35,0.00,40.00,11,4,25,0.00
2013-5-8,76.0,62.3,47.0,51.0,49.9,45.0,94,66,42,0.00,40.00,11,4,19,0.00
2013-5-9,83.0,64.1,45.0,54.0,50.0,44.0,96,66,30,0.00,40.00,9,4,16,0.00
2013-5-10,88.0,63.8,45.0,55.0,41.9,-99.9,96,61,21,0.00,40.00,8,3,16,0.00
2013-5-11,87.0,69.5,53.0,56.0,51.3,47.0,89,57,30,0.00,40.00,8,3,16,0.00
2013-5-12,71.0,63.9,54.0,58.0,54.7,52.0,90,72,59,0.00,40.00,12,6,25,0.00
2013-5-13,69.0,60.1,53.0,55.0,49.9,39.0,94,69,43,0.00,40.00,8,4,22,0.00
2013-5-14,66.0,55.9,41.0,42.0,35.3,21.0,93,51,17,0.00,40.00,11,5,23,0.00
2013-5-15,60.0,51.5,42.0,47.0,42.4,36.0,88,72,56,0.00,40.00,7,3,15,0.00
2013-5-16,69.0,55.7,44.0,54.0,34.8,-99.9,96,76,43,0.00,40.00,5,2,13,0.00
2013-5-17,65.0,55.7,50.0,50.0,46.5,42.0,97,74,43,0.00,40.00,10,4,18,0.02
2013-5-18,58.0,52.4,45.0,48.0,45.8,44.0,95,79,64,0.00,40.00,10,4,18,0.01
2013-5-19,64.0,53.9,43.0,49.0,45.0,43.0,96,74,49,0.00,40.00,9,4,22,0.00
2013-5-20,76.0,56.9,37.0,48.0,43.3,36.0,97,66,34,0.00,40.00,7,3,14,0.00
2013-5-21,57.0,50.5,43.0,47.0,41.8,38.0,88,72,56,0.00,40.00,11,6,25,0.00
2013-5-22,48.0,44.6,42.0,43.0,40.9,38.0,94,86,81,0.00,40.00,4,2,8,0.01
2013-5-23,53.0,47.4,41.0,46.0,42.4,39.0,95,83,69,0.00,40.00,5,2,12,0.01
2013-5-24,59.0,51.4,46.0,46.0,44.9,42.0,97,79,59,0.00,40.00,10,4,18,0.01
2013-5-25,65.0,53.0,39.0,48.0,43.4,38.0,98,73,47,0.00,40.00,9,4,20,0.01
2013-5-26,65.0,56.7,51.0,53.0,49.5,48.0,97,78,55,0.00,40.00,11,4,21,0.01
2013-5-27,57.0,51.6,43.0,55.0,49.7,42.0,98,93,75,0.00,40.00,4,2,7,0.01
2013-5-28,63.0,55.2,47.0,53.0,48.7,46.0,98,80,54,0.00,40.00,12,5,24,0.01
2013-5-29,62.0,53.7,50.0,53.0,49.3,47.0,98,86,63,0.00,40.00,9,2,21,0.02
2013-5-30,62.0,54.3,45.0,47.0,44.7,43.0,95,72,51,0.00,40.00,10,6,20,0.01
2013-5-31,69.0,55.8,39.0,48.0,43.3,38.0,98,68,39,0.00,40.00,7,3,14,0.00
2013-6-1,75.0,58.7,41.0,51.0,47.1,40.0,98,70,40,0.00,40.00,12,4,23,0.00
2013-6-2,71.0,60.4,46.0,51.0,47.9,45.0,97,67,39,0.00,40.00,9,4,19,0.00
2013-6-3,77.0,61.3,41.0,50.0,46.9,41.0,97,63,37,0.00,40.00,8,4,14,0.00
2013-6-4,83.0,64.6,42.0,52.0,45.8,41.0,96,58,21,0.00,40.00,6,3,14,0.00
2013-6-5,85.0,67.3,46.0,55.0,49.4,45.0,95,59,26,0.00,40.00,8,3,16,0.00
2013-6-6,84.0,70.3,52.0,58.0,53.4,50.0,94,59,31,0.00,40.00,9,4,18,0.00
2013-6-7,78.0,67.3,52.0,54.0,47.1,32.0,83,51,22,0.00,40.00,11,5,25,0.00
2013-6-8,81.0,66.9,46.0,50.0,45.6,39.0,94,51,23,0.00,40.00,10,5,20,0.00
2013-6-9,73.0,64.5,55.0,50.0,45.4,40.0,75,52,30,0.00,40.00,12,6,24,0.00
2013-6-10,72.0,59.9,44.0,47.0,43.2,36.0,92,57,27,0.00,40.00,11,6,25,0.00
2013-6-11,61.0,56.5,51.0,45.0,42.2,39.0,74,59,48,0.00,40.00,9,5,17,0.00
2013-6-12,67.0,58.8,42.0,47.0,43.4,41.0,96,58,41,0.00,40.00,9,5,20,0.00
2013-6-13,65.0,57.5,50.0,51.0,46.5,43.0,88,68,51,0.00,40.00,11,5,19,0.00
2013-6-14,70.0,59.5,48.0,48.0,46.3,44.0,85,63,42,0.00,40.00,9,4,24,0.00
2013-6-15,84.0,65.0,41.0,58.0,46.9,40.0,96,60,24,0.00,40.00,6,3,15,0.00
2013-6-16,77.0,66.8,54.0,57.0,52.3,45.0,96,63,39,0.00,40.00,9,4,19,0.00
2013-6-17,77.0,67.3,56.0,55.0,49.9,46.0,86,56,34,0.00,40.00,10,5,19,0.00
2013-6-18,70.0,62.2,54.0,49.0,45.8,40.0,75,56,33,0.00,40.00,9,5,20,0.00
2013-6-19,66.0,57.5,50.0,48.0,46.2,44.0,90,67,46,0.00,40.00,10,5,21,0.00
2013-6-20,60.0,55.9,53.0,48.0,47.7,47.0,83,74,63,0.00,40.00,8,4,16,0.00
2013-6-22,80.0,70.6,51.0,55.0,49.1,44.0,87,49,27,0.00,40.00,6,3,12,0.00
2013-6-23,72.0,64.5,59.0,61.0,57.9,55.0,97,80,60,0.00,40.00,4,2,9,0.01
2013-6-24,67.0,60.3,57.0,60.0,54.0,51.0,98,80,59,0.00,40.00,8,3,16,0.01
2013-6-25,69.0,59.5,55.0,59.0,55.8,54.0,97,88,62,0.00,40.00,4,2,8,0.00
2013-6-26,59.0,56.3,55.0,57.0,55.3,54.0,97,95,87,0.00,40.00,2,1,4,0.00
2013-7-1,92.0,83.1,67.0,66.0,64.7,62.0,87,56,40,0.00,40.00,6,4,11,0.00
2013-7-2,93.0,81.5,63.0,68.0,61.5,50.0,96,55,28,0.00,40.00,9,4,18,0.00
2013-7-3,86.0,76.4,64.0,58.0,48.7,39.0,78,43,21,0.00,40.00,12,6,21,0.00
2013-7-4,77.0,67.8,56.0,53.0,49.1,46.0,76,52,36,0.00,40.00,11,6,21,0.00
2013-7-5,74.0,65.3,56.0,51.0,49.7,48.0,77,58,44,0.00,40.00,8,5,19,0.00
2013-7-6,79.0,67.1,53.0,56.0,52.4,49.0,93,61,34,0.00,40.00,6,3,12,0.00
2013-7-7,80.0,73.1,60.0,57.0,55.6,52.0,84,55,45,0.00,40.00,10,6,18,0.00
2013-7-8,85.0,67.3,55.0,57.0,51.2,-99.9,88,63,35,0.00,40.00,8,4,18,0.00
2013-7-9,92.0,75.4,49.0,61.0,53.8,48.0,95,52,26,0.00,40.00,6,2,13,0.00
2013-7-10,85.0,73.0,57.0,57.0,44.5,-99.9,91,43,25,0.00,40.00,11,6,23,0.00
2013-7-11,77.0,65.3,50.0,49.0,45.2,42.0,78,51,30,0.00,40.00,11,5,23,0.00
2013-7-12,77.0,65.6,48.0,50.0,46.0,42.0,90,52,30,0.00,40.00,11,5,22,0.00
2013-7-13,85.0,66.6,46.0,52.0,43.7,28.0,92,52,13,0.00,40.00,5,3,11,0.00
2013-7-14,90.0,68.1,45.0,49.0,46.6,42.0,96,54,19,0.00,40.00,8,3,16,0.00
2013-7-15,90.0,78.2,54.0,51.0,45.8,40.0,88,36,18,0.00,40.00,6,3,14,0.00
2013-7-16,84.0,68.7,51.0,63.0,52.2,47.0,87,59,30,0.00,40.00,3,2,6,0.00
2013-7-17,80.0,71.7,62.0,56.0,52.8,45.0,76,53,30,0.00,40.00,9,7,21,0.00
2013-7-18,88.0,77.0,53.0,57.0,51.0,43.0,88,44,20,0.00,40.00,8,4,16,0.00
2013-7-19,87.0,78.0,52.0,58.0,54.7,51.0,95,47,32,0.00,40.00,8,4,14,0.00
2013-7-20,85.0,74.0,57.0,58.0,53.0,-99.9,89,52,38,0.00,40.00,10,6,21,0.00
2013-7-21,87.0,78.1,65.0,58.0,54.6,53.0,68,45,31,0.00,40.00,6,4,13,0.00
2013-7-22,89.0,73.8,58.0,57.0,53.5,48.0,93,54,24,0.00,40.00,9,5,18,0.00
2013-7-23,82.0,70.0,52.0,58.0,53.8,51.0,94,60,37,0.00,40.00,2,2,5,0.00
2013-7-26,93.0,84.5,70.0,54.0,52.0,50.0,56,34,23,0.00,40.00,8,4,20,0.00
2013-7-27,81.0,69.7,53.0,51.0,46.4,40.0,82,46,24,0.00,40.00,10,5,24,0.00
2013-7-28,76.0,65.9,53.0,52.0,49.1,46.0,87,56,34,0.00,40.00,10,6,20,0.00
2013-7-29,81.0,66.3,50.0,54.0,49.8,43.0,94,59,27,0.00,40.00,8,4,19,0.00
2013-7-30,84.0,73.6,56.0,57.0,52.5,48.0,91,51,30,0.00,40.00,9,5,19,0.00
2013-7-31,80.0,71.5,58.0,61.0,57.0,51.0,84,61,45,0.00,40.00,6,3,12,0.00
2013-8-1,71.0,65.1,57.0,56.0,54.5,52.0,95,69,56,0.00,40.00,10,6,20,0.00
2013-8-2,61.0,58.0,55.0,56.0,53.5,52.0,89,84,75,0.00,40.00,4,2,9,0.00
2013-8-4,92.0,84.8,70.0,62.0,55.2,50.0,73,38,25,0.00,40.00,6,4,11,0.00
2013-8-5,90.0,77.1,53.0,62.0,56.6,52.0,95,54,31,0.00,40.00,7,4,20,0.00
2013-8-6,91.0,83.7,65.0,59.0,51.4,40.0,76,36,21,0.00,40.00,7,4,19,0.00
2013-8-7,90.0,82.8,76.0,53.0,51.2,48.0,43,34,25,0.00,40.00,9,5,16,0.00
2013-8-8,85.0,73.3,63.0,60.0,56.8,53.0,74,57,41,0.00,40.00,8,4,16,0.00
2013-8-9,86.0,74.1,59.0,63.0,59.7,56.0,94,64,38,0.00,40.00,7,4,15,0.00
2013-8-10,80.0,68.8,57.0,64.0,60.4,56.0,96,77,51,0.00,40.00,8,3,16,0.00
2013-8-11,80.0,70.2,59.0,62.0,56.8,50.0,95,66,37,0.00,40.00,9,5,22,0.00
2013-9-1,87.0,73.3,54.0,60.0,56.4,53.0,96,60,35,0.00,40.00,7,3,14,0.00
2013-9-2,83.0,75.4,62.0,58.0,55.8,54.0,84,52,37,0.00,40.00,8,4,18,0.00
2013-9-3,80.0,70.3,59.0,58.0,56.1,53.0,90,63,39,0.00,40.00,8,4,19,0.00
2013-9-4,77.0,66.3,55.0,58.0,56.5,54.0,95,73,49,0.00,40.00,10,4,19,0.00
2013-9-5,73.0,66.2,57.0,59.0,57.5,55.0,94,74,59,0.00,40.00,8,4,20,0.00
2013-9-6,69.0,61.5,56.0,60.0,56.3,54.0,97,84,58,0.00,40.00,6,2,14,0.02
2013-9-7,81.0,62.8,48.0,62.0,51.8,-99.9,97,74,37,0.00,40.00,5,2,11,0.01
2013-9-8,85.0,67.2,51.0,62.0,55.7,50.0,97,72,30,0.00,40.00,4,2,7,0.00
2013-9-9,87.0,69.1,51.0,63.0,57.6,50.0,97,71,37,0.00,40.00,6,3,13,0.00
2013-9-10,90.0,70.3,54.0,65.0,55.5,48.0,97,67,25,0.00,40.00,7,2,16,0.00
2013-9-11,94.0,74.7,52.0,62.0,55.0,50.0,96,58,22,0.00,40.00,6,2,15,0.00
2013-9-12,83.0,64.9,52.0,59.0,55.6,51.0,96,75,42,0.00,40.00,2,1,6,0.00
2013-9-14,-200.0,0.0,200.0,-99.9,-99.9,-99.9,0,0,100,0.00,40.00,2,2,3,0.00
2013-9-16,70.0,65.2,55.0,55.0,53.5,52.0,93,67,56,0.00,40.00,8,6,16,0.00
2013-9-17,69.0,59.1,51.0,54.0,48.2,43.0,95,69,41,0.00,40.00,10,4,22,0.00
2013-9-18,59.0,55.7,52.0,49.0,47.1,45.0,85,73,60,0.00,40.00,4,2,12,0.00
2013-9-19,79.0,58.0,37.0,47.0,41.9,36.0,96,63,24,0.00,40.00,5,2,16,0.00
2013-9-20,76.0,62.2,42.0,55.0,48.0,40.0,95,63,31,0.00,40.00,10,3,21,0.00
2013-9-21,69.0,57.0,50.0,56.0,49.5,-99.9,97,81,52,0.00,40.00,8,3,19,0.00
2013-9-22,61.0,55.2,50.0,54.0,51.2,49.0,96,87,63,0.00,40.00,5,2,8,0.01
2013-9-23,61.0,56.0,50.0,54.0,51.4,49.0,95,85,66,0.00,40.00,5,2,9,0.01
2013-9-24,60.0,52.7,49.0,51.0,48.1,46.0,97,85,62,0.00,40.00,7,2,13,0.00
2013-9-25,62.0,51.6,46.0,48.0,45.7,44.0,95,81,55,0.00,40.00,7,2,14,0.00
2013-9-26,65.0,53.3,38.0,48.0,43.8,37.0,97,73,48,0.00,40.00,7,3,14,0.00
2013-9-27,59.0,54.1,48.0,52.0,49.5,47.0,96,84,63,0.00,40.00,6,2,14,0.01
2013-9-28,64.0,54.8,51.0,59.0,51.4,-99.9,98,92,79,0.00,40.00,6,2,20,0.06
2013-9-29,54.0,51.4,48.0,51.0,49.2,46.0,97,91,81,0.00,40.00,4,2,10,0.05
2013-9-30,52.0,51.2,49.0,49.0,44.6,42.0,90,78,68,0.00,40.00,6,4,15,0.03
2013-10-1,54.0,47.7,42.0,46.0,44.1,41.0,97,87,72,0.00,40.00,3,2,6,0.02
2013-10-2,55.0,45.3,38.0,45.0,41.6,38.0,98,88,66,0.00,40.00,5,2,13,0.01
2013-10-3,60.0,48.6,37.0,43.0,40.9,36.0,97,77,52,0.00,40.00,7,3,14,0.00
2013-10-4,66.0,45.8,31.0,47.0,38.3,31.0,97,79,38,0.00,40.00,7,2,16,0.00
2013-10-5,69.0,48.9,32.0,50.0,39.9,32.0,97,76,38,0.00,40.00,3,2,7,0.00
2013-10-6,70.0,49.6,34.0,49.0,42.0,33.0,98,79,43,0.00,40.00,2,2,5,0.00
2013-10-7,58.0,52.2,43.0,52.0,46.9,42.0,95,82,65,0.00,40.00,7,3,16,0.00
2013-10-8,54.0,49.2,39.0,47.0,43.7,38.0,96,81,69,0.00,40.00,5,2,11,0.00
2013-10-9,59.0,44.6,32.0,50.0,40.1,31.0,98,86,51,0.00,40.00,2,1,5,0.00
2013-10-10,62.0,52.0,39.0,47.0,43.9,38.0,96,76,49,0.00,40.00,8,4,19,0.00
2013-10-11,59.0,48.8,40.0,47.0,42.6,40.0,97,81,54,0.00,40.00,6,2,16,0.00
2013-10-12,54.0,46.3,39.0,48.0,41.5,-99.9,97,87,68,0.00,40.00,4,2,8,0.00
2013-10-13,64.0,46.6,37.0,46.0,40.8,37.0,98,83,40,0.00,40.00,2,1,5,0.00
2013-10-14,64.0,43.9,32.0,46.0,37.1,31.0,98,81,35,0.00,40.00,3,2,10,0.00
2013-10-15,64.0,43.8,31.0,43.0,36.1,30.0,97,78,36,0.00,40.00,5,2,13,0.00
2013-10-16,66.0,43.9,32.0,44.0,37.0,31.0,97,81,37,0.00,40.00,4,2,8,0.00
2013-10-17,66.0,46.0,31.0,45.0,37.2,30.0,98,76,36,0.00,40.00,4,2,14,0.00
2013-10-18,66.0,46.3,30.0,43.0,37.0,30.0,97,75,36,0.00,40.00,6,2,14,0.00
2013-10-19,67.0,44.2,30.0,49.0,35.1,-99.9,97,78,42,0.00,40.00,3,1,6,0.00
2013-10-20,71.0,49.8,32.0,52.0,42.2,31.0,98,78,44,0.00,40.00,2,1,6,0.00
2013-10-21,73.0,51.6,34.0,49.0,42.4,34.0,98,76,33,0.00,40.00,5,2,14,0.00
2013-10-22,72.0,56.0,34.0,49.0,44.4,33.0,98,71,37,0.00,40.00,5,2,12,0.00
2013-10-23,71.0,52.3,33.0,49.0,43.3,32.0,98,76,41,0.00,40.00,4,2,9,0.00
2013-10-24,70.0,48.0,33.0,52.0,42.4,32.0,98,83,45,0.00,40.00,4,2,8,0.00
2013-10-25,67.0,48.6,34.0,51.0,43.4,34.0,98,84,54,0.00,40.00,4,2,7,0.00
2013-10-26,64.0,48.8,42.0,50.0,42.9,-99.9,99,87,57,0.00,40.00,4,1,9,0.00
2013-11-2,-200.0,0.0,200.0,-99.9,-99.9,-99.9,0,0,100,0.00,40.00,9,9,20,0.00
2013-11-3,50.0,43.6,39.0,42.0,37.6,32.0,96,80,50,0.00,40.00,8,3,17,0.01
2013-11-4,46.0,40.4,32.0,42.0,38.6,31.0,97,93,80,0.00,40.00,3,1,7,0.00
2013-11-5,52.0,44.9,42.0,50.0,43.0,41.0,98,94,76,0.00,40.00,8,1,16,0.00
2013-11-6,51.0,47.3,43.0,48.0,45.4,42.0,98,93,84,0.00,40.00,4,1,8,0.01
2013-11-7,50.0,46.4,43.0,47.0,42.2,40.0,96,85,69,0.00,40.00,8,4,18,0.02
2013-11-8,53.0,48.9,46.0,44.0,42.3,39.0,93,78,61,0.00,40.00,5,2,12,0.01
2013-11-10,44.0,42.3,40.0,41.0,40.1,37.0,97,92,89,0.00,40.00,2,1,4,0.00
2013-11-11,49.0,46.9,37.0,42.0,40.9,37.0,97,79,70,0.00,40.00,7,3,16,0.00
2013-11-12,54.0,48.1,44.0,47.0,44.0,40.0,97,86,71,0.00,40.00,7,2,16,0.00
2013-11-13,59.0,47.0,37.0,49.0,41.2,36.0,99,82,44,0.00,40.00,8,3,15,0.00
2013-11-14,53.0,43.7,33.0,42.0,37.9,32.0,98,81,57,0.00,40.00,7,3,15,0.00
2013-11-15,49.0,46.4,44.0,40.0,37.2,33.0,85,70,58,0.00,40.00,9,4,18,0.00
2013-11-16,49.0,45.6,42.0,44.0,37.8,34.0,89,74,62,0.00,40.00,8,4,24,0.01
2013-11-17,51.0,46.5,41.0,46.0,42.7,38.0,97,85,70,0.00,40.00,6,2,14,0.00
2013-11-18,53.0,48.3,45.0,47.0,45.1,42.0,98,89,77,0.00,40.00,4,2,8,0.00
2013-11-19,53.0,48.4,43.0,52.0,44.1,34.0,99,86,65,0.00,40.00,11,4,22,0.01
2013-11-20,45.0,35.6,24.0,34.0,23.3,13.0,94,65,28,0.00,40.00,7,3,14,0.01
2013-11-21,41.0,26.4,15.0,21.0,15.1,11.0,89,67,28,0.00,40.00,7,2,12,0.00
2013-11-22,40.0,27.1,15.0,19.0,15.5,12.0,89,64,38,0.00,40.00,6,3,14,0.00
2013-11-23,41.0,28.7,18.0,22.0,17.8,15.0,88,65,38,0.00,40.00,7,3,15,0.00
2013-11-24,43.0,28.0,18.0,23.0,19.6,16.0,90,73,42,0.00,40.00,5,2,11,0.00
2013-11-25,44.0,28.0,18.0,26.0,21.3,16.0,91,77,46,0.00,40.00,3,1,8,0.00
2013-11-26,40.0,27.8,21.0,27.0,23.0,19.0,92,83,56,0.00,40.00,2,1,4,0.00
2013-11-27,41.0,30.7,24.0,29.0,26.2,23.0,94,84,60,0.00,40.00,3,1,7,0.00
2013-11-28,44.0,29.3,21.0,30.0,24.6,20.0,93,83,55,0.00,40.00,2,1,4,0.00
2013-11-29,38.0,29.8,21.0,33.0,26.8,19.0,93,88,77,0.00,40.00,2,1,4,0.00
2013-11-30,54.0,40.4,34.0,44.0,36.4,-99.9,98,89,65,0.00,40.00,4,2,11,0.00
2013-12-1,57.0,50.1,40.0,53.0,47.3,38.0,99,90,74,0.00,40.00,8,3,23,0.05
2013-12-2,49.0,41.4,33.0,47.0,36.4,29.0,95,82,55,0.00,40.00,9,5,24,0.06
2013-12-3,39.0,32.1,23.0,30.0,24.0,15.0,96,74,44,0.00,40.00,5,2,12,0.00
2013-12-4,33.0,23.2,16.0,20.0,13.9,9.0,89,70,37,0.00,40.00,6,2,13,0.00
2013-12-5,26.0,18.5,10.0,15.0,11.5,7.0,88,74,57,0.00,40.00,4,2,8,0.00
2013-12-6,22.0,20.3,19.0,17.0,14.0,11.0,89,76,67,0.00,40.00,5,3,10,0.00
2013-12-7,22.0,15.4,2.0,17.0,3.8,-99.9,88,64,37,0.00,40.00,7,2,15,0.00
2013-12-8,19.0,6.6,-4.0,7.0,0.7,-9.0,83,75,55,0.00,40.00,2,1,4,0.00
2013-12-9,34.0,18.0,3.0,27.0,11.7,-2.0,83,76,62,0.00,40.00,4,2,9,0.00
2013-12-10,40.0,33.1,25.0,31.0,28.2,24.0,94,82,67,0.00,40.00,5,2,13,0.00
2013-12-11,32.0,27.4,20.0,27.0,23.1,18.0,94,84,61,0.00,40.00,3,1,7,0.00
2013-12-12,32.0,24.2,15.0,27.0,20.3,13.0,91,85,68,0.00,40.00,3,1,5,0.00
2013-12-13,48.0,37.1,28.0,42.0,33.6,26.0,96,87,77,0.00,40.00,4,2,8,0.00
2013-12-14,45.0,36.2,30.0,40.0,32.7,-99.9,98,92,81,0.00,40.00,3,1,6,0.00
2013-12-23,57.0,47.8,44.0,49.0,38.4,33.0,87,69,57,0.00,40.00,12,5,26,0.00
2013-12-24,49.0,36.0,26.0,34.0,30.2,25.0,95,80,51,0.00,40.00,3,2,7,0.00
2013-12-25,40.0,28.4,22.0,31.0,25.6,20.0,95,89,67,0.00,40.00,3,1,4,0.00
2013-12-26,39.0,27.9,21.0,33.0,25.9,19.0,97,92,75,0.00,40.00,3,1,5,0.00
2013-12-27,44.0,30.5,26.0,44.0,29.9,25.0,98,97,90,0.00,40.00,6,2,16,0.00
2013-12-28,46.0,34.2,28.0,37.0,28.8,-99.9,97,86,63,0.00,40.00,4,1,6,0.00
2013-12-29,34.0,30.0,28.0,34.0,29.6,27.0,99,98,97,0.00,40.00,2,1,5,0.00
2013-12-30,39.0,33.0,28.0,36.0,32.3,28.0,99,96,82,0.00,40.00,3,2,7,0.00
2013-12-31,52.0,39.4,31.0,40.0,34.0,30.0,98,82,54,0.00,40.00,7,2,14,0.00
2014-1-1,47.0,34.4,26.0,38.0,32.1,25.0,97,91,71,0.00,40.00,3,1,5,0.00
2014-1-2,49.0,37.0,31.0,41.0,34.7,30.0,97,91,72,0.00,40.00,8,2,14,0.00